Regional Weather Roundup
Issued by NWS Midland/Odessa, TX

Home | Current Version | Previous Version | Text Only | Print | Product List | Glossary On
Versions: 1 2 3 4 5 6 7 8 9 10 11 12 13 14 15 16 17 18 19 20 21 22 23 24 25 26 27 28 29 30 31 32 33 34 35 36 37 38 39 40 41 42 43 44 45 46 47 48 49 50
000
ASUS44 KMAF 292110
RWRMAF
MIDLAND AREA WEATHER ROUNDUP
NATIONAL WEATHER SERVICE MIDLAND TX
400 PM CDT FRI MAY 29 2015

...IN SOUTHWEST TEXAS AND SOUTHEAST NEW MEXICO...

CITY           SKY/WX    TMP DP  RH WIND       PRES   REMARKS
ALPINE         MOSUNNY   87  51  29 E13       30.08F
ANDREWS        FAIR      82  60  46 NE7       29.99F
ARTESIA        SUNNY     88  50  27 VRB7G13   29.99F
BIG SPRING     SUNNY     82  64  55 SE5       29.99F
CARLSBAD       SUNNY     89  53  29 SE8       29.96F
DRYDEN           N/A     91  66  43 SE8       29.89F
FORT STOCKTON  SUNNY     83  58  42 N7        29.96F
GUAD PASS      MOSUNNY   82  49  31 E14       30.12F
HOBBS          SUNNY     84  55  37 NE6       30.01F
MARFA          SUNNY     90  30  12 SW10      30.08F
MIDLAND AIRPK  MOSUNNY   83  62  47 E5        29.98F
MIDLAND INTL   SUNNY     83  62  49 VRB3      29.97F
ODESSA         SUNNY     83  61  47 NE6       29.98F
PECOS          SUNNY     86  53  32 CALM      29.93F
PRESIDIO       FAIR      99  25   7 S10G18    29.89F
SEMINOLE       SUNNY     86  58  38 E13       30.00F
SNYDER         MOSUNNY   80  65  59 CALM      29.98F
WINK           SUNNY     90  55  30 VRB5      29.94F
$$
...OTHER STATIONS IN TEXAS...

CITY           SKY/WX    TMP DP  RH WIND       PRES   REMARKS
ABILENE        MOSUNNY   84  67  56 SW9       29.96F
AMARILLO       MOSUNNY   77  51  40 N13       30.05S
AUSTIN         MOSUNNY   87  68  52 S12       29.93F
BROWNSVILLE    SUNNY     86  73  65 S16       29.93S
CORPUS CHRISTI MOSUNNY   86  71  60 S15       29.95F
DALLAS FTW     CLOUDY    76  66  71 W8        29.93F
DEL RIO        PTSUNNY   84  69  60 SE16G24   29.91F
EL PASO        MOSUNNY   92  21   7 VRB3      29.98F
HOUSTON INT    MOSUNNY   87  65  47 VRB3      29.95F
LUBBOCK        MOSUNNY   81  55  40 VRB3      30.01F
SAN ANGELO     PTSUNNY   83  67  58 S10       29.94F
SAN ANTONIO    MOSUNNY   86  68  54 S14       29.96F
WACO           MOSUNNY   85  64  49 VRB3      29.94F
WICHITA FALLS  NOT AVBL
$$
...OTHER LOCATIONS IN NEW MEXICO...

CITY           SKY/WX    TMP DP  RH WIND       PRES   REMARKS
ALAMAGORDO     MOSUNNY   91  21   8 NW14      30.01F
ALBUQUERQUE    PTSUNNY   77  32  19 NW35G45   30.14F
CANNON AFB     PTSUNNY   77  55  46 NE7       30.06F
CLOVIS         MOSUNNY   79  55  44 E9          N/A
HOLLOMAN AFB   MOSUNNY   92  18   6 W12G20    29.99F
ROSWELL        SUNNY     88  49  25 VRB6      29.99F
RUIDOSO        PTSUNNY   72  39  30 CALM      30.22R
SANTA FE       PTSUNNY   75  31  19 N9        30.15F
TRUTH OR CONSE PTSUNNY   87  25  10 S12       30.04F
TUCUMCARI      PTSUNNY   80  54  40 E12       30.04F
$$



USA.gov is the U.S. government's official web portal to all federal, state and local government web resources and services.